Location: Newark
(44.1667°N, 8.2500°E)
Time: 06:11:34
(UTC+00:00)

Altair - Visible Passes

Search period start: 09 December 2019 00:00
Search period end: 19 December 2019 00:00
Orbit: 1502 x 1682 km, 47.2° (Epoch: 07 December)

Date Brightness Start Highest point End Pass type
(mag) Time Alt. Az. Time Alt. Az. Time Alt. Az.
09 Dec 8.8 02:09:38 26° ESE 02:09:38 26° ESE 02:13:00 10° ESE visible
09 Dec 8.0 04:07:42 35° SW 04:07:42 35° SW 04:15:45 10° SSE visible
09 Dec 8.8 19:16:28 10° SSW 19:20:11 23° S 19:20:11 23° S visible
10 Dec 9.3 01:46:15 17° ESE 01:46:15 17° ESE 01:47:51 10° ESE visible
10 Dec 8.1 03:44:19 36° SSW 03:44:19 36° SSW 03:50:52 10° SSE visible
10 Dec 8.6 18:51:37 10° S 18:56:52 26° SSE 18:56:52 26° SSE visible
10 Dec 9.5 20:53:51 10° SW 20:54:55 14° SW 20:54:55 14° SW visible
11 Dec 8.4 03:20:58 31° S 03:20:58 31° S 03:25:57 10° SSE visible
11 Dec 8.4 18:26:48 10° S 18:33:32 28° SE 18:33:32 28° SE visible
11 Dec 9.0 20:28:43 10° SW 20:31:35 22° SW 20:31:35 22° SW visible
12 Dec 8.8 02:57:38 24° SSE 02:57:38 24° SSE 03:01:01 10° SSE visible
12 Dec 9.0 04:55:42 11° SW 04:55:42 11° SW 04:57:24 10° SW visible
12 Dec 8.4 18:02:03 10° S 18:09:31 26° SE 18:10:08 26° SE visible
12 Dec 8.6 20:03:35 10° SW 20:08:12 33° SW 20:08:12 33° SW visible
13 Dec 9.2 02:34:20 17° SSE 02:34:20 17° SSE 02:36:04 10° SSE visible
13 Dec 9.1 04:32:24 12° SW 04:32:24 12° SW 04:33:48 10° SSW visible
13 Dec 8.5 17:37:20 10° S 17:44:29 24° SE 17:46:44 22° ESE visible
13 Dec 8.1 19:38:27 10° SW 19:44:47 45° SSW 19:44:47 45° SSW visible
14 Dec 9.6 02:11:02 10° SE 02:11:02 10° SE 02:11:05 10° SE visible
14 Dec 9.2 04:09:06 11° SSW 04:09:06 11° SSW 04:09:44 10° SSW visible
14 Dec 8.7 17:12:41 10° S 17:19:26 21° SE 17:23:17 17° E visible
14 Dec 7.7 19:13:21 10° SW 19:21:19 56° S 19:21:19 56° S visible
14 Dec 9.5 21:17:57 10° W 21:19:22 16° W 21:19:22 16° W visible
15 Dec 8.8 16:48:06 10° SSE 16:54:24 19° SE 16:59:48 12° E visible
15 Dec 7.5 18:48:15 10° SW 18:57:43 59° SE 18:57:50 59° SE visible
15 Dec 9.0 20:52:43 10° W 20:55:52 24° W 20:55:52 24° W visible
16 Dec 9.0 16:23:36 10° SSE 16:29:23 17° SE 16:35:02 10° E visible
16 Dec 7.6 18:23:10 10° SW 18:32:35 55° SE 18:34:18 50° ESE visible
16 Dec 8.6 20:27:28 10° WSW 20:32:20 35° W 20:32:20 35° W visible
17 Dec 7.7 17:58:07 10° SW 18:07:28 52° SE 18:10:43 38° E visible
17 Dec 8.1 20:02:14 10° WSW 20:08:46 49° W 20:08:46 49° W visible
18 Dec 7.9 17:33:05 10° SSW 17:42:22 49° SE 17:47:07 29° E visible
18 Dec 7.6 19:36:59 10° WSW 19:45:09 67° W 19:45:09 67° W visible
18 Dec 9.6 21:42:27 10° W 21:43:10 13° W 21:43:10 13° W visible
